{"data":{"norad_id":67479,"epoch":"2026-05-25T01:25:00.139296Z","epoch_age_seconds":69843,"freshness":"FRESH","line1":"1 67479U 26010D   26145.05902939 -.00000015  00000+0  78111-4 0  9995","line2":"2 67479  44.9810 184.8385 0011868 234.5438 125.4287 13.99141804 18155","mean_motion":13.99141804,"eccentricity":0.0011868,"inclination_deg":44.981,"raan_deg":184.8385,"arg_perigee_deg":234.5438,"mean_anomaly_deg":125.4287,"bstar":7.8111e-5,"rev_number":1815,"period_min":102.92023266571,"perigee_km":888.1345842299,"apogee_km":905.40229978705,"semimajor_km":7274.9054420085,"source":"CELESTRAK","updated_at":"2026-05-25T13:38:07.038084Z"}}